| time (UTC) | temp C | wind direction | speed KPH | gust KPH | rain 1hr cm | rain 24hr cm | rain mn cm | humidity % | barometer mb |
| 20260507143209 | 13 | 231 | 1.6 | 3.2 | 0.00 | 0.00 | 0.00 | 51 | 956.0 |
| 20260507142705 | 13 | 306 | 3.2 | 8.0 | 0.00 | 0.00 | 0.00 | 50 | 955.9 |
| 20260507142202 | 13 | 308 | 6.4 | 8.0 | 0.00 | 0.00 | 0.00 | 52 | 956.1 |
| 20260507141658 | 12 | 2 | 3.2 | 4.8 | 0.00 | 0.00 | 0.00 | 53 | 955.9 |
| 20260507141155 | 12 | 301 | 3.2 | 3.2 | 0.00 | 0.00 | 0.00 | 54 | 956.0 |
| 20260507140651 | 12 | 321 | 1.6 | 1.6 | 0.00 | 0.00 | 0.00 | 56 | 955.8 |
| 20260507140149 | 12 | 323 | 1.6 | 1.6 | 0.00 | 0.00 | 0.00 | 55 | 955.9 |
| 20260507135646 | 12 | 20 | 1.6 | 3.2 | 0.00 | 0.00 | 0.00 | 56 | 955.9 |
| 20260507135143 | 12 | 15 | 1.6 | 1.6 | 0.00 | 0.00 | 0.00 | 56 | 955.7 |
| 20260507134639 | 11 | 330 | 4.8 | 8.0 | 0.00 | 0.00 | 0.00 | 56 | 955.8 |
| 20260507134136 | 11 | 26 | 1.6 | 1.6 | 0.00 | 0.00 | 0.00 | 57 | 955.7 |
| 20260507133631 | 11 | 326 | 4.8 | 8.0 | 0.00 | 0.00 | 0.00 | 58 | 955.7 |
| 20260507133129 | 11 | 19 | 3.2 | 3.2 | 0.00 | 0.00 | 0.00 | 58 | 955.6 |
| 20260507132626 | 11 | 256 | 3.2 | 3.2 | 0.00 | 0.00 | 0.00 | 59 | 955.6 |
| 20260507132122 | 11 | 217 | 1.6 | 3.2 | 0.00 | 0.00 | 0.00 | 59 | 955.5 |
| 20260507131619 | 11 | 5 | 3.2 | 3.2 | 0.00 | 0.00 | 0.00 | 60 | 955.5 |
| 20260507131117 | 10 | 28 | 3.2 | 4.8 | 0.00 | 0.00 | 0.00 | 60 | 955.5 |
| 20260507130613 | 10 | 339 | 3.2 | 3.2 | 0.00 | 0.00 | 0.00 | 61 | 955.6 |
| 20260507130111 | 10 | 225 | 1.6 | 3.2 | 0.00 | 0.00 | 0.00 | 62 | 955.5 |
| 20260507125610 | 10 | 172 | 1.6 | 1.6 | 0.00 | 0.00 | 0.00 | 61 | 955.5 |
| 20260507125107 | 10 | 330 | 8.0 | 14.5 | 0.00 | 0.00 | 0.00 | 61 | 955.4 |
| 20260507124603 | 10 | 311 | 1.6 | 3.2 | 0.00 | 0.00 | 0.00 | 61 | 955.2 |
| 20260507124101 | 10 | 341 | 3.2 | 3.2 | 0.00 | 0.00 | 0.00 | 61 | 955.4 |
| 20260507123559 | 10 | 222 | 3.2 | 4.8 | 0.00 | 0.00 | 0.00 | 61 | 955.0 |
| 20260507123055 | 10 | 139 | 4.8 | 9.7 | 0.00 | 0.00 | 0.00 | 61 | 955.1 |
| 20260507122551 | 10 | 330 | 3.2 | 3.2 | 0.00 | 0.00 | 0.00 | 61 | 955.0 |
| 20260507122047 | 10 | 235 | 3.2 | 3.2 | 0.00 | 0.00 | 0.00 | 61 | 955.0 |
| 20260507121543 | 10 | 208 | 1.6 | 3.2 | 0.00 | 0.00 | 0.00 | 61 | 955.1 |
| 20260507121039 | 10 | 331 | 1.6 | 3.2 | 0.00 | 0.00 | 0.00 | 61 | 955.0 |
| 20260507120535 | 10 | 144 | 1.6 | 3.2 | 0.00 | 0.00 | 0.00 | 61 | 954.6 |
| 20260507120032 | 10 | 341 | 0.0 | 1.6 | 0.00 | 0.00 | 0.00 | 61 | 954.8 |
| 20260507115528 | 11 | 267 | 3.2 | 4.8 | 0.00 | 0.00 | 0.00 | 61 | 954.5 |
| 20260507115024 | 11 | 306 | 3.2 | 3.2 | 0.00 | 0.00 | 0.00 | 60 | 954.7 |
| 20260507114520 | 11 | 8 | 1.6 | 1.6 | 0.00 | 0.00 | 0.00 | 60 | 954.6 |
| 20260507114018 | 11 | 58 | 1.6 | 1.6 | 0.00 | 0.00 | 0.00 | 59 | 954.6 |
| 20260507113515 | 11 | 288 | 4.8 | 4.8 | 0.00 | 0.00 | 0.00 | 59 | 954.6 |
| 20260507113012 | 11 | 359 | 3.2 | 3.2 | 0.00 | 0.00 | 0.00 | 59 | 954.5 |
| 20260507112510 | 11 | 346 | 1.6 | 1.6 | 0.00 | 0.00 | 0.00 | 58 | 954.4 |
| 20260507112006 | 12 | 334 | 4.8 | 9.7 | 0.00 | 0.00 | 0.00 | 58 | 954.4 |
| 20260507111504 | 12 | 320 | 4.8 | 8.0 | 0.00 | 0.00 | 0.00 | 57 | 954.4 |
| 20260507110959 | 12 | 290 | 1.6 | 3.2 | 0.00 | 0.00 | 0.00 | 57 | 954.4 |
| 20260507110456 | 12 | 336 | 0.0 | 1.6 | 0.00 | 0.00 | 0.00 | 58 | 954.1 |
| 20260507105952 | 12 | 299 | 1.6 | 1.6 | 0.00 | 0.00 | 0.00 | 60 | 954.3 |
| 20260507105449 | 12 | 136 | 3.2 | 3.2 | 0.00 | 0.00 | 0.00 | 60 | 954.3 |
| 20260507104946 | 12 | 237 | 3.2 | 3.2 | 0.00 | 0.00 | 0.00 | 60 | 954.1 |
| 20260507104443 | 12 | 65 | 1.6 | 1.6 | 0.00 | 0.00 | 0.00 | 60 | 954.1 |
| 20260507103938 | 12 | 233 | 1.6 | 3.2 | 0.00 | 0.00 | 0.00 | 60 | 954.1 |
| 20260507103436 | 12 | 170 | 1.6 | 1.6 | 0.00 | 0.00 | 0.00 | 60 | 954.0 |
| 20260507102932 | 12 | 245 | 1.6 | 4.8 | 0.00 | 0.00 | 0.00 | 61 | 954.2 |
| 20260507102429 | 11 | 226 | 1.6 | 1.6 | 0.00 | 0.00 | 0.00 | 62 | 954.2 |
| 20260507101925 | 12 | 334 | 0.0 | 1.6 | 0.00 | 0.00 | 0.00 | 62 | 954.2 |
| 20260507101420 | 11 | 235 | 1.6 | 3.2 | 0.00 | 0.00 | 0.00 | 62 | 954.1 |
| 20260507100917 | 11 | 310 | 3.2 | 4.8 | 0.00 | 0.00 | 0.00 | 62 | 954.1 |
| 20260507100415 | 11 | 122 | 1.6 | 1.6 | 0.00 | 0.00 | 0.00 | 63 | 954.0 |
| 20260507095913 | 11 | 223 | 1.6 | 1.6 | 0.00 | 0.00 | 0.00 | 64 | 954.0 |
| 20260507095409 | 11 | 156 | 1.6 | 1.6 | 0.00 | 0.00 | 0.00 | 64 | 954.2 |
| 20260507094907 | 11 | 328 | 0.0 | 1.6 | 0.00 | 0.00 | 0.00 | 64 | 954.0 |
| 20260507094403 | 11 | 244 | 0.0 | 1.6 | 0.00 | 0.00 | 0.00 | 64 | 954.0 |
| 20260507093900 | 11 | 43 | 0.0 | 1.6 | 0.00 | 0.00 | 0.00 | 64 | 954.0 |
| 20260507093358 | 11 | 159 | 0.0 | 0.0 | 0.00 | 0.00 | 0.00 | 64 | 953.9 |
| 20260507092856 | 11 | 296 | 0.0 | 1.6 | 0.00 | 0.00 | 0.00 | 64 | 953.8 |
| 20260507092352 | 11 | 275 | 1.6 | 1.6 | 0.00 | 0.00 | 0.00 | 64 | 953.9 |
| 20260507091848 | 11 | 101 | 0.0 | 0.0 | 0.00 | 0.00 | 0.00 | 64 | 954.0 |
| 20260507091345 | 11 | 298 | 0.0 | 1.6 | 0.00 | 0.00 | 0.00 | 64 | 953.9 |
| 20260507090840 | 11 | 263 | 1.6 | 1.6 | 0.00 | 0.00 | 0.00 | 64 | 953.9 |
| 20260507090337 | 11 | 66 | 0.0 | 0.0 | 0.00 | 0.00 | 0.00 | 63 | 953.8 |
| 20260507085834 | 11 | 65 | 0.0 | 0.0 | 0.00 | 0.00 | 0.00 | 63 | 953.9 |
| 20260507085331 | 11 | 11 | 0.0 | 0.0 | 0.00 | 0.00 | 0.00 | 62 | 953.9 |
| 20260507084828 | 11 | 68 | 0.0 | 0.0 | 0.00 | 0.00 | 0.00 | 62 | 953.7 |
| 20260507084324 | 11 | 317 | 0.0 | 0.0 | 0.00 | 0.00 | 0.00 | 62 | 953.6 |
| 20260507083822 | 11 | 337 | 0.0 | 0.0 | 0.00 | 0.00 | 0.00 | 61 | 953.6 |
| 20260507083318 | 12 | 37 | 0.0 | 0.0 | 0.00 | 0.00 | 0.00 | 61 | 954.0 |
| 20260507082814 | 12 | 12 | 0.0 | 0.0 | 0.00 | 0.00 | 0.00 | 61 | 953.9 |
| 20260507082310 | 12 | 235 | 1.6 | 3.2 | 0.00 | 0.00 | 0.00 | 61 | 953.7 |
| 20260507081808 | 12 | 301 | 0.0 | 0.0 | 0.00 | 0.00 | 0.00 | 61 | 953.7 |
| 20260507081303 | 12 | 83 | 0.0 | 0.0 | 0.00 | 0.00 | 0.00 | 61 | 953.7 |
| 20260507080800 | 12 | 80 | 0.0 | 0.0 | 0.00 | 0.00 | 0.00 | 62 | 953.7 |
| 20260507080257 | 12 | 127 | 0.0 | 1.6 | 0.00 | 0.00 | 0.00 | 62 | 953.7 |
| 20260507075752 | 12 | 233 | 0.0 | 0.0 | 0.00 | 0.00 | 0.00 | 62 | 953.7 |
| 20260507075248 | 12 | 68 | 0.0 | 0.0 | 0.00 | 0.00 | 0.00 | 62 | 953.9 |
| 20260507074744 | 12 | 358 | 0.0 | 0.0 | 0.00 | 0.00 | 0.00 | 62 | 954.0 |
| 20260507074243 | 12 | 18 | 0.0 | 0.0 | 0.00 | 0.00 | 0.00 | 61 | 953.8 |
| 20260507073739 | 12 | 299 | 0.0 | 1.6 | 0.00 | 0.00 | 0.00 | 60 | 954.0 |
| 20260507073236 | 12 | 37 | 0.0 | 0.0 | 0.00 | 0.00 | 0.00 | 60 | 953.9 |
| 20260507072734 | 13 | 254 | 1.6 | 3.2 | 0.00 | 0.00 | 0.00 | 60 | 954.0 |
| 20260507072231 | 13 | 87 | 0.0 | 0.0 | 0.00 | 0.00 | 0.00 | 58 | 953.7 |
| 20260507071728 | 13 | 31 | 0.0 | 0.0 | 0.00 | 0.00 | 0.00 | 57 | 953.7 |
| 20260507071224 | 13 | 40 | 0.0 | 0.0 | 0.00 | 0.00 | 0.00 | 56 | 953.8 |
| 20260507070722 | 13 | 133 | 0.0 | 1.6 | 0.00 | 0.00 | 0.00 | 55 | 953.6 |
| 20260507070219 | 13 | 49 | 0.0 | 0.0 | 0.00 | 0.00 | 0.00 | 54 | 953.9 |
| 20260507065715 | 13 | 34 | 0.0 | 1.6 | 0.00 | 0.00 | 0.00 | 53 | 953.7 |
| 20260507065212 | 13 | 38 | 0.0 | 0.0 | 0.00 | 0.00 | 0.00 | 52 | 954.0 |
| 20260507064709 | 13 | 105 | 0.0 | 0.0 | 0.00 | 0.00 | 0.00 | 51 | 954.0 |
| 20260507064208 | 13 | 357 | 0.0 | 0.0 | 0.00 | 0.00 | 0.00 | 51 | 954.0 |
| 20260507063705 | 12 | 25 | 0.0 | 0.0 | 0.00 | 0.00 | 0.00 | 51 | 953.8 |
| 20260507063201 | 12 | 2 | 0.0 | 0.0 | 0.00 | 0.00 | 0.00 | 50 | 954.0 |
| 20260507062658 | 12 | 237 | 0.0 | 0.0 | 0.00 | 0.00 | 0.00 | 50 | 953.9 |
| 20260507062156 | 12 | 50 | 0.0 | 0.0 | 0.00 | 0.00 | 0.00 | 49 | 954.0 |
| 20260507061654 | 12 | 64 | 0.0 | 0.0 | 0.00 | 0.00 | 0.00 | 49 | 953.9 |
| 20260507061152 | 13 | 40 | 0.0 | 0.0 | 0.00 | 0.00 | 0.00 | 48 | 954.0 |
| 20260507060649 | 13 | 57 | 0.0 | 0.0 | 0.00 | 0.00 | 0.00 | 47 | 953.9 |
| 20260507060145 | 13 | 53 | 0.0 | 0.0 | 0.00 | 0.00 | 0.00 | 48 | 954.0 |
| 20260507055641 | 13 | 26 | 0.0 | 0.0 | 0.00 | 0.00 | 0.00 | 47 | 954.3 |
| 20260507055137 | 13 | 22 | 0.0 | 0.0 | 0.00 | 0.00 | 0.00 | 46 | 954.3 |
| 20260507054633 | 13 | 10 | 0.0 | 0.0 | 0.00 | 0.00 | 0.00 | 46 | 954.6 |
| 20260507054131 | 13 | 24 | 0.0 | 0.0 | 0.00 | 0.00 | 0.00 | 46 | 954.3 |
| 20260507053628 | 13 | 25 | 0.0 | 0.0 | 0.00 | 0.00 | 0.00 | 46 | 954.4 |
| 20260507053126 | 13 | 16 | 0.0 | 0.0 | 0.00 | 0.00 | 0.00 | 46 | 954.3 |
| 20260507052624 | 13 | 11 | 0.0 | 0.0 | 0.00 | 0.00 | 0.00 | 46 | 954.3 |
| 20260507052120 | 13 | 11 | 0.0 | 0.0 | 0.00 | 0.00 | 0.00 | 45 | 954.3 |
| 20260507051618 | 13 | 26 | 0.0 | 0.0 | 0.00 | 0.00 | 0.00 | 45 | 954.4 |
| 20260507051115 | 14 | 28 | 0.0 | 0.0 | 0.00 | 0.00 | 0.00 | 45 | 954.2 |
| 20260507050612 | 14 | 8 | 0.0 | 0.0 | 0.00 | 0.00 | 0.00 | 45 | 954.4 |
| 20260507050109 | 14 | 21 | 0.0 | 0.0 | 0.00 | 0.00 | 0.00 | 44 | 954.3 |
| 20260507045605 | 14 | 14 | 1.6 | 1.6 | 0.00 | 0.00 | 0.00 | 45 | 954.4 |
| 20260507045102 | 13 | 13 | 0.0 | 0.0 | 0.00 | 0.00 | 0.00 | 51 | 954.4 |
| 20260507044559 | 13 | 25 | 0.0 | 0.0 | 0.00 | 0.00 | 0.00 | 53 | 954.3 |
| 20260507044056 | 13 | 41 | 0.0 | 0.0 | 0.00 | 0.00 | 0.00 | 55 | 954.2 |
| 20260507043551 | 13 | 43 | 0.0 | 0.0 | 0.00 | 0.00 | 0.00 | 55 | 954.1 |
| 20260507043049 | 14 | 48 | 0.0 | 0.0 | 0.00 | 0.00 | 0.00 | 54 | 954.0 |
| 20260507042545 | 14 | 53 | 0.0 | 0.0 | 0.00 | 0.00 | 0.00 | 53 | 954.1 |
| 20260507042041 | 15 | 66 | 0.0 | 0.0 | 0.00 | 0.00 | 0.00 | 52 | 953.9 |
| 20260507041538 | 15 | 122 | 0.0 | 0.0 | 0.00 | 0.00 | 0.00 | 52 | 953.9 |
| 20260507041035 | 15 | 114 | 0.0 | 0.0 | 0.00 | 0.00 | 0.00 | 51 | 953.8 |
| 20260507040531 | 15 | 169 | 0.0 | 1.6 | 0.00 | 0.00 | 0.00 | 51 | 953.9 |
| 20260507040027 | 15 | 207 | 1.6 | 1.6 | 0.00 | 0.00 | 0.00 | 50 | 953.7 |
| 20260507035523 | 15 | 353 | 0.0 | 0.0 | 0.00 | 0.00 | 0.00 | 49 | 953.8 |
| 20260507035020 | 15 | 158 | 0.0 | 1.6 | 0.00 | 0.00 | 0.00 | 49 | 953.7 |
| 20260507034517 | 15 | 101 | 0.0 | 0.0 | 0.00 | 0.00 | 0.00 | 49 | 953.7 |
| 20260507034015 | 15 | 18 | 0.0 | 0.0 | 0.00 | 0.00 | 0.00 | 49 | 953.5 |
| 20260507033513 | 15 | 12 | 0.0 | 0.0 | 0.00 | 0.00 | 0.00 | 48 | 953.4 |
| 20260507033010 | 15 | 45 | 0.0 | 0.0 | 0.00 | 0.00 | 0.00 | 48 | 953.3 |
| 20260507032506 | 16 | 0 | 0.0 | 0.0 | 0.00 | 0.00 | 0.00 | 48 | 953.1 |
| 20260507032003 | 16 | 18 | 0.0 | 0.0 | 0.00 | 0.00 | 0.00 | 48 | 953.0 |
| 20260507031459 | 16 | 61 | 0.0 | 0.0 | 0.00 | 0.00 | 0.00 | 47 | 952.9 |
| 20260507030956 | 16 | 67 | 1.6 | 1.6 | 0.00 | 0.00 | 0.00 | 46 | 953.2 |
| 20260507030453 | 16 | 276 | 0.0 | 1.6 | 0.00 | 0.00 | 0.00 | 44 | 953.5 |
| 20260507025950 | 16 | 291 | 0.0 | 0.0 | 0.00 | 0.00 | 0.00 | 43 | 953.5 |
| 20260507025447 | 17 | 115 | 0.0 | 0.0 | 0.00 | 0.00 | 0.00 | 41 | 953.7 |
| 20260507024945 | 17 | 59 | 4.8 | 8.0 | 0.00 | 0.00 | 0.00 | 40 | 953.6 |
| 20260507024442 | 17 | 347 | 0.0 | 0.0 | 0.00 | 0.00 | 0.00 | 35 | 953.5 |
| 20260507023938 | 17 | 352 | 0.0 | 0.0 | 0.00 | 0.00 | 0.00 | 33 | 953.2 |
| 20260507023435 | 17 | 41 | 0.0 | 1.6 | 0.00 | 0.00 | 0.00 | 34 | 953.4 |
| 20260507022932 | 17 | 93 | 1.6 | 1.6 | 0.00 | 0.00 | 0.00 | 31 | 953.3 |
| 20260507022429 | 17 | 46 | 0.0 | 0.0 | 0.00 | 0.00 | 0.00 | 31 | 953.4 |
| 20260507021924 | 17 | 146 | 3.2 | 3.2 | 0.00 | 0.00 | 0.00 | 31 | 953.4 |
| 20260507021420 | 17 | 65 | 0.0 | 0.0 | 0.00 | 0.00 | 0.00 | 29 | 952.9 |
| 20260507020918 | 17 | 59 | 0.0 | 0.0 | 0.00 | 0.00 | 0.00 | 29 | 953.1 |
| 20260507020414 | 17 | 95 | 0.0 | 1.6 | 0.00 | 0.00 | 0.00 | 29 | 953.0 |
| 20260507015912 | 17 | 148 | 0.0 | 0.0 | 0.00 | 0.00 | 0.00 | 29 | 953.1 |
| 20260507015410 | 17 | 22 | 0.0 | 0.0 | 0.00 | 0.00 | 0.00 | 30 | 953.3 |
| 20260507014906 | 17 | 8 | 0.0 | 0.0 | 0.00 | 0.00 | 0.00 | 30 | 953.1 |
| 20260507014402 | 17 | 41 | 0.0 | 0.0 | 0.00 | 0.00 | 0.00 | 29 | 952.9 |
| 20260507013859 | 18 | 34 | 0.0 | 0.0 | 0.00 | 0.00 | 0.00 | 29 | 952.8 |
| 20260507013356 | 18 | 38 | 0.0 | 0.0 | 0.00 | 0.00 | 0.00 | 29 | 953.0 |
| 20260507012854 | 18 | 53 | 0.0 | 0.0 | 0.00 | 0.00 | 0.00 | 28 | 952.7 |
| 20260507012349 | 18 | 41 | 0.0 | 0.0 | 0.00 | 0.00 | 0.00 | 29 | 952.7 |
| 20260507011847 | 18 | 52 | 0.0 | 0.0 | 0.00 | 0.00 | 0.00 | 28 | 952.6 |
| 20260507011344 | 18 | 43 | 0.0 | 0.0 | 0.00 | 0.00 | 0.00 | 27 | 952.7 |
| 20260507010837 | 18 | 60 | 0.0 | 1.6 | 0.00 | 0.00 | 0.00 | 28 | 952.6 |
| 20260507010333 | 18 | 35 | 0.0 | 0.0 | 0.00 | 0.00 | 0.00 | 27 | 952.6 |
| 20260507005831 | 18 | 43 | 0.0 | 1.6 | 0.00 | 0.00 | 0.00 | 28 | 952.7 |
| 20260507005327 | 18 | 65 | 0.0 | 0.0 | 0.00 | 0.00 | 0.00 | 28 | 952.7 |
| 20260507004824 | 19 | 74 | 0.0 | 0.0 | 0.00 | 0.00 | 0.00 | 27 | 952.7 |
| 20260507004321 | 19 | 114 | 1.6 | 3.2 | 0.00 | 0.00 | 0.00 | 27 | 952.7 |
| 20260507003818 | 20 | 37 | 0.0 | 1.6 | 0.00 | 0.00 | 0.00 | 26 | 952.4 |
| 20260507003314 | 20 | 80 | 0.0 | 0.0 | 0.00 | 0.00 | 0.00 | 26 | 952.4 |
| 20260507002809 | 19 | 35 | 1.6 | 3.2 | 0.00 | 0.00 | 0.00 | 27 | 952.3 |
| 20260507002306 | 19 | 49 | 0.0 | 0.0 | 0.00 | 0.00 | 0.00 | 27 | 952.3 |
| 20260507001803 | 18 | 35 | 0.0 | 0.0 | 0.00 | 0.00 | 0.00 | 27 | 952.4 |
| 20260507001300 | 18 | 31 | 0.0 | 0.0 | 0.00 | 0.00 | 0.00 | 28 | 952.4 |
| 20260507000756 | 18 | 61 | 0.0 | 0.0 | 0.00 | 0.00 | 0.00 | 27 | 952.2 |
| 20260507000252 | 19 | 125 | 0.0 | 0.0 | 0.00 | 0.00 | 0.00 | 28 | 952.4 |
| 20260506235749 | 18 | 27 | 0.0 | 0.0 | 0.00 | 0.00 | 0.00 | 27 | 952.4 |
| 20260506235244 | 19 | 16 | 0.0 | 0.0 | 0.00 | 0.00 | 0.00 | 27 | 952.2 |
| 20260506234742 | 19 | 43 | 0.0 | 0.0 | 0.00 | 0.00 | 0.00 | 26 | 952.4 |
| 20260506234238 | 19 | 34 | 3.2 | 4.8 | 0.00 | 0.00 | 0.00 | 26 | 952.2 |
| 20260506233736 | 19 | 35 | 1.6 | 1.6 | 0.00 | 0.00 | 0.00 | 27 | 952.3 |
| 20260506233232 | 20 | 49 | 0.0 | 1.6 | 0.00 | 0.00 | 0.00 | 26 | 952.3 |
| 20260506232729 | 20 | 29 | 0.0 | 0.0 | 0.00 | 0.00 | 0.00 | 26 | 952.3 |
| 20260506232224 | 20 | 349 | 1.6 | 3.2 | 0.00 | 0.00 | 0.00 | 25 | 952.2 |
| 20260506231722 | 20 | 66 | 0.0 | 0.0 | 0.00 | 0.00 | 0.00 | 26 | 952.2 |
| 20260506231220 | 21 | 50 | 1.6 | 3.2 | 0.00 | 0.00 | 0.00 | 24 | 952.3 |
| 20260506230716 | 21 | 16 | 0.0 | 1.6 | 0.00 | 0.00 | 0.00 | 24 | 952.7 |
| 20260506230213 | 20 | 29 | 0.0 | 1.6 | 0.00 | 0.00 | 0.00 | 25 | 952.7 |
| 20260506225710 | 21 | 86 | 0.0 | 0.0 | 0.00 | 0.00 | 0.00 | 24 | 952.6 |
| 20260506225207 | 20 | 61 | 0.0 | 1.6 | 0.00 | 0.00 | 0.00 | 26 | 952.2 |
| 20260506224703 | 20 | 11 | 3.2 | 3.2 | 0.00 | 0.00 | 0.00 | 25 | 952.6 |
| 20260506224201 | 20 | 39 | 1.6 | 1.6 | 0.00 | 0.00 | 0.00 | 26 | 952.6 |
| 20260506223656 | 20 | 120 | 3.2 | 4.8 | 0.00 | 0.00 | 0.00 | 26 | 952.7 |
| 20260506223152 | 20 | 158 | 4.8 | 8.0 | 0.00 | 0.00 | 0.00 | 24 | 952.8 |
| 20260506222649 | 20 | 44 | 1.6 | 3.2 | 0.00 | 0.00 | 0.00 | 25 | 952.8 |
| 20260506222145 | 20 | 50 | 3.2 | 3.2 | 0.00 | 0.00 | 0.00 | 24 | 953.0 |
| 20260506221643 | 20 | 112 | 3.2 | 3.2 | 0.00 | 0.00 | 0.00 | 25 | 952.7 |
| 20260506221141 | 20 | 133 | 6.4 | 8.0 | 0.00 | 0.00 | 0.00 | 25 | 952.9 |
| 20260506220638 | 19 | 98 | 1.6 | 1.6 | 0.00 | 0.00 | 0.00 | 25 | 952.8 |
| 20260506220132 | 20 | 36 | 1.6 | 3.2 | 0.00 | 0.00 | 0.00 | 25 | 952.8 |
| 20260506215630 | 20 | 153 | 4.8 | 8.0 | 0.00 | 0.00 | 0.00 | 25 | 952.9 |
| 20260506215125 | 20 | 216 | 0.0 | 0.0 | 0.00 | 0.00 | 0.00 | 25 | 953.2 |
| 20260506214622 | 21 | 48 | 3.2 | 3.2 | 0.00 | 0.00 | 0.00 | 24 | 953.2 |
| 20260506214120 | 20 | 21 | 0.0 | 0.0 | 0.00 | 0.00 | 0.00 | 26 | 953.3 |
| 20260506213618 | 19 | 92 | 4.8 | 8.0 | 0.00 | 0.00 | 0.00 | 25 | 953.3 |
| 20260506213114 | 18 | 44 | 3.2 | 3.2 | 0.00 | 0.00 | 0.00 | 25 | 953.2 |
| 20260506212612 | 19 | 109 | 3.2 | 4.8 | 0.00 | 0.00 | 0.00 | 25 | 953.6 |
| 20260506212106 | 19 | 85 | 3.2 | 3.2 | 0.00 | 0.00 | 0.00 | 25 | 953.6 |
| 20260506211602 | 19 | 154 | 1.6 | 3.2 | 0.00 | 0.00 | 0.00 | 25 | 953.7 |
| 20260506211100 | 18 | 359 | 1.6 | 1.6 | 0.00 | 0.00 | 0.00 | 26 | 953.8 |
| 20260506210556 | 19 | 120 | 1.6 | 3.2 | 0.00 | 0.00 | 0.00 | 25 | 953.8 |
| 20260506210053 | 19 | 140 | 4.8 | 4.8 | 0.00 | 0.00 | 0.00 | 25 | 953.7 |
| 20260506205549 | 18 | 59 | 1.6 | 1.6 | 0.00 | 0.00 | 0.00 | 26 | 953.7 |
| 20260506205044 | 18 | 25 | 3.2 | 4.8 | 0.00 | 0.00 | 0.00 | 25 | 953.8 |
| 20260506204543 | 19 | 93 | 1.6 | 3.2 | 0.00 | 0.00 | 0.00 | 24 | 953.8 |
| 20260506204040 | 18 | 81 | 1.6 | 3.2 | 0.00 | 0.00 | 0.00 | 26 | 953.7 |
| 20260506203538 | 18 | 88 | 3.2 | 3.2 | 0.00 | 0.00 | 0.00 | 25 | 953.8 |
| 20260506203034 | 18 | 96 | 6.4 | 8.0 | 0.00 | 0.00 | 0.00 | 25 | 954.0 |
| 20260506202532 | 18 | 75 | 1.6 | 4.8 | 0.00 | 0.00 | 0.00 | 25 | 954.0 |
| 20260506202028 | 18 | 113 | 1.6 | 3.2 | 0.00 | 0.00 | 0.00 | 25 | 954.1 |
| 20260506201526 | 18 | 114 | 1.6 | 3.2 | 0.00 | 0.00 | 0.00 | 26 | 953.9 |
| 20260506201022 | 18 | 15 | 1.6 | 3.2 | 0.00 | 0.00 | 0.00 | 26 | 954.2 |
| 20260506200518 | 18 | 131 | 1.6 | 3.2 | 0.00 | 0.00 | 0.00 | 25 | 954.2 |
| 20260506200015 | 18 | 140 | 3.2 | 4.8 | 0.00 | 0.00 | 0.00 | 27 | 954.3 |
| 20260506195513 | 17 | 99 | 1.6 | 1.6 | 0.00 | 0.00 | 0.00 | 27 | 954.3 |
| 20260506195008 | 17 | 119 | 1.6 | 1.6 | 0.00 | 0.00 | 0.00 | 27 | 954.3 |
| 20260506194506 | 17 | 110 | 1.6 | 3.2 | 0.00 | 0.00 | 0.00 | 28 | 954.1 |
| 20260506194002 | 17 | 212 | 3.2 | 4.8 | 0.00 | 0.00 | 0.00 | 27 | 954.5 |
| 20260506193500 | 16 | 179 | 6.4 | 8.0 | 0.00 | 0.00 | 0.00 | 26 | 954.5 |
| 20260506192956 | 17 | 169 | 6.4 | 9.7 | 0.00 | 0.00 | 0.00 | 25 | 954.5 |
| 20260506192453 | 17 | 72 | 1.6 | 3.2 | 0.00 | 0.00 | 0.00 | 28 | 954.6 |
| 20260506191944 | 17 | 102 | 3.2 | 4.8 | 0.00 | 0.00 | 0.00 | 28 | 954.5 |
| 20260506191441 | 17 | 63 | 6.4 | 9.7 | 0.00 | 0.00 | 0.00 | 28 | 954.5 |
| 20260506190937 | 16 | 81 | 1.6 | 3.2 | 0.00 | 0.00 | 0.00 | 28 | 954.5 |
| 20260506190434 | 17 | 89 | 3.2 | 3.2 | 0.00 | 0.00 | 0.00 | 27 | 954.9 |
| 20260506185931 | 17 | 23 | 4.8 | 9.7 | 0.00 | 0.00 | 0.00 | 27 | 954.8 |
| 20260506185428 | 17 | 71 | 4.8 | 8.0 | 0.00 | 0.00 | 0.00 | 28 | 954.8 |
| 20260506184925 | 16 | 84 | 3.2 | 8.0 | 0.00 | 0.00 | 0.00 | 29 | 954.9 |
| 20260506184422 | 16 | 163 | 3.2 | 3.2 | 0.00 | 0.00 | 0.00 | 29 | 955.0 |
| 20260506183919 | 16 | 58 | 0.0 | 1.6 | 0.00 | 0.00 | 0.00 | 30 | 954.9 |
| 20260506183414 | 15 | 52 | 4.8 | 4.8 | 0.00 | 0.00 | 0.00 | 29 | 955.3 |
| 20260506182912 | 15 | 92 | 1.6 | 1.6 | 0.00 | 0.00 | 0.00 | 29 | 955.0 |
| 20260506182409 | 15 | 57 | 1.6 | 1.6 | 0.00 | 0.00 | 0.00 | 29 | 955.1 |
| 20260506181907 | 16 | 128 | 8.0 | 14.5 | 0.00 | 0.00 | 0.00 | 28 | 955.2 |
| 20260506181404 | 16 | 88 | 3.2 | 4.8 | 0.00 | 0.00 | 0.00 | 28 | 955.2 |
| 20260506180901 | 16 | 128 | 6.4 | 9.7 | 0.00 | 0.00 | 0.00 | 28 | 955.0 |
| 20260506180357 | 15 | 64 | 1.6 | 3.2 | 0.00 | 0.00 | 0.00 | 31 | 955.2 |
| 20260506175854 | 16 | 156 | 4.8 | 8.0 | 0.00 | 0.00 | 0.00 | 29 | 955.2 |
| 20260506175350 | 15 | 140 | 4.8 | 4.8 | 0.00 | 0.00 | 0.00 | 29 | 955.2 |
| 20260506174847 | 15 | 21 | 3.2 | 8.0 | 0.00 | 0.00 | 0.00 | 30 | 955.3 |
| 20260506174345 | 15 | 322 | 1.6 | 3.2 | 0.00 | 0.00 | 0.00 | 30 | 955.5 |
| 20260506173842 | 15 | 135 | 3.2 | 4.8 | 0.00 | 0.00 | 0.00 | 30 | 955.4 |
| 20260506173339 | 15 | 129 | 3.2 | 3.2 | 0.00 | 0.00 | 0.00 | 32 | 955.5 |
| 20260506172836 | 14 | 66 | 1.6 | 3.2 | 0.00 | 0.00 | 0.00 | 32 | 955.7 |
| 20260506172333 | 13 | 91 | 1.6 | 3.2 | 0.00 | 0.00 | 0.00 | 33 | 955.6 |
| 20260506171830 | 13 | 120 | 3.2 | 4.8 | 0.00 | 0.00 | 0.00 | 33 | 955.9 |
| 20260506171327 | 13 | 107 | 4.8 | 8.0 | 0.00 | 0.00 | 0.00 | 35 | 956.0 |
| 20260506170825 | 13 | 101 | 3.2 | 4.8 | 0.00 | 0.00 | 0.00 | 33 | 956.0 |
| 20260506170320 | 13 | 116 | 1.6 | 1.6 | 0.00 | 0.00 | 0.00 | 34 | 956.1 |
| 20260506165820 | 12 | 75 | 0.0 | 1.6 | 0.00 | 0.00 | 0.00 | 35 | 956.1 |
| 20260506165317 | 12 | 139 | 3.2 | 4.8 | 0.00 | 0.00 | 0.00 | 35 | 956.2 |
| 20260506164813 | 12 | 120 | 1.6 | 3.2 | 0.00 | 0.00 | 0.00 | 35 | 956.2 |
| 20260506164310 | 12 | 82 | 4.8 | 4.8 | 0.00 | 0.00 | 0.00 | 35 | 956.3 |
| 20260506163807 | 12 | 108 | 3.2 | 3.2 | 0.00 | 0.00 | 0.00 | 36 | 956.1 |
| 20260506163302 | 12 | 115 | 1.6 | 3.2 | 0.00 | 0.00 | 0.00 | 36 | 956.2 |
| 20260506162758 | 11 | 133 | 8.0 | 11.3 | 0.00 | 0.00 | 0.00 | 36 | 956.4 |
| 20260506162256 | 11 | 61 | 0.0 | 1.6 | 0.00 | 0.00 | 0.00 | 37 | 956.5 |
| 20260506161753 | 10 | 97 | 4.8 | 4.8 | 0.00 | 0.00 | 0.00 | 38 | 956.4 |
| 20260506161250 | 11 | 130 | 3.2 | 3.2 | 0.00 | 0.00 | 0.00 | 37 | 956.4 |
| 20260506160748 | 11 | 103 | 3.2 | 3.2 | 0.00 | 0.00 | 0.00 | 37 | 956.5 |
| 20260506160244 | 10 | 127 | 3.2 | 3.2 | 0.00 | 0.00 | 0.00 | 38 | 956.7 |
| 20260506155743 | 10 | 76 | 3.2 | 3.2 | 0.00 | 0.00 | 0.00 | 38 | 956.5 |
| 20260506155239 | 10 | 69 | 4.8 | 8.0 | 0.00 | 0.00 | 0.00 | 39 | 956.6 |
| 20260506153347 | 9 | 53 | 4.8 | 8.0 | 0.00 | 0.00 | 0.00 | 39 | 957.0 |
| 20260506152843 | 9 | 119 | 3.2 | 4.8 | 0.00 | 0.00 | 0.00 | 39 | 956.9 |
| 20260506152341 | 9 | 144 | 4.8 | 4.8 | 0.00 | 0.00 | 0.00 | 39 | 956.9 |
| 20260506151839 | 8 | 307 | 1.6 | 1.6 | 0.00 | 0.00 | 0.00 | 39 | 957.0 |
| 20260506151335 | 8 | 57 | 0.0 | 1.6 | 0.00 | 0.00 | 0.00 | 40 | 957.1 |
| 20260506150833 | 8 | 86 | 4.8 | 8.0 | 0.00 | 0.00 | 0.00 | 40 | 957.1 |
| 20260506150329 | 8 | 125 | 1.6 | 3.2 | 0.00 | 0.00 | 0.00 | 40 | 957.1 |
| 20260506145826 | 8 | 118 | 3.2 | 3.2 | 0.00 | 0.00 | 0.00 | 40 | 957.2 |
| 20260506145322 | 7 | 33 | 1.6 | 3.2 | 0.00 | 0.00 | 0.00 | 42 | 957.3 |
| 20260506144820 | 7 | 158 | 1.6 | 3.2 | 0.00 | 0.00 | 0.00 | 42 | 957.3 |
| 20260506144317 | 6 | 142 | 1.6 | 3.2 | 0.00 | 0.00 | 0.00 | 43 | 957.6 |
| 20260506143815 | 6 | 71 | 1.6 | 4.8 | 0.00 | 0.00 | 0.00 | 43 | 957.6 |